UAL546 TBPB-TTPP

Flight info

Callsign UAL546
Flight time 0h 44m
Altitude 24000
Route BGI UR515 TAB DCT NAPKO DCT LEXOR DCT TALUS
Aircraft A320/M-SDE3FGHIRWY/LB1

Departure

Time 2026-04-28 15:30
Airport Grantley Adams International Airport (TBPB)

Arrival

Time 2026-04-28 16:15
Airport Piarco International Airport (TTPP)
Time Latitude Longitude Altitude Speed Heading
2026-04-28 15:09 13.07924 -59.48624 172 ft 0 kts 351°
2026-04-28 15:20 13.07908 -59.48622 171 ft 2 kts 351°
2026-04-28 15:20 13.07891 -59.48619 171 ft 2 kts 351°
2026-04-28 15:20 13.07874 -59.48616 171 ft 2 kts 351°
2026-04-28 15:20 13.07858 -59.48614 171 ft 2 kts 351°
2026-04-28 15:21 13.07841 -59.48611 171 ft 3 kts 335°
2026-04-28 15:21 13.07826 -59.48601 171 ft 3 kts 299°
2026-04-28 15:21 13.07821 -59.48584 171 ft 3 kts 263°
2026-04-28 15:21 13.07822 -59.48576 171 ft 0 kts 246°
2026-04-28 15:22 13.07820 -59.48581 171 ft 2 kts 246°
2026-04-28 15:22 13.07799 -59.48631 171 ft 11 kts 248°
2026-04-28 15:23 13.07776 -59.48718 172 ft 14 kts 255°
2026-04-28 15:23 13.07724 -59.48812 172 ft 16 kts 244°
2026-04-28 15:23 13.07703 -59.48930 173 ft 18 kts 257°
2026-04-28 15:23 13.07669 -59.49064 173 ft 21 kts 255°
2026-04-28 15:24 13.07628 -59.49216 174 ft 23 kts 254°
2026-04-28 15:24 13.07584 -59.49386 174 ft 26 kts 259°
2026-04-28 15:24 13.07533 -59.49572 174 ft 28 kts 250°
2026-04-28 15:24 13.07490 -59.49774 175 ft 30 kts 257°
2026-04-28 15:25 13.07446 -59.49963 176 ft 28 kts 256°
2026-04-28 15:25 13.07399 -59.50150 176 ft 28 kts 255°
2026-04-28 15:25 13.07346 -59.50353 177 ft 30 kts 255°
2026-04-28 15:25 13.07293 -59.50569 177 ft 32 kts 256°
2026-04-28 15:26 13.07248 -59.50735 177 ft 0 kts 223°
2026-04-28 15:28 13.07242 -59.50734 177 ft 2 kts 174°
2026-04-28 15:29 13.07202 -59.50725 177 ft 8 kts 170°
2026-04-28 15:29 13.07134 -59.50713 178 ft 11 kts 170°
2026-04-28 15:29 13.07106 -59.50673 178 ft 7 kts 65°
2026-04-28 15:29 13.07115 -59.50644 178 ft 1 kts 76°
2026-04-28 15:30 13.07139 -59.50546 178 ft 53 kts 76°
2026-04-28 15:30 13.07307 -59.49848 176 ft 142 kts 76°
2026-04-28 15:30 13.07599 -59.48644 190 ft 202 kts 76°
2026-04-28 15:30 13.07955 -59.47249 1172 ft 202 kts 77°
2026-04-28 15:31 13.08241 -59.45788 2201 ft 214 kts 81°
2026-04-28 15:31 13.08212 -59.44252 3247 ft 221 kts 106°
2026-04-28 15:31 13.07394 -59.42860 4063 ft 242 kts 138°
2026-04-28 15:31 13.05912 -59.42068 4960 ft 240 kts 171°
2026-04-28 15:32 13.04292 -59.42214 5872 ft 241 kts 198°
2026-04-28 15:32 13.03226 -59.42654 6389 ft 247 kts 209°
2026-04-28 15:32 13.01420 -59.44178 7333 ft 266 kts 226°
2026-04-28 15:32 13.00166 -59.45650 7963 ft 280 kts 231°
2026-04-28 15:33 12.98803 -59.47122 8500 ft 287 kts 221°
2026-04-28 15:33 12.97228 -59.48463 9029 ft 299 kts 218°
2026-04-28 15:33 12.95562 -59.49751 9578 ft 306 kts 216°
2026-04-28 15:33 12.93799 -59.51050 10223 ft 317 kts 220°
2026-04-28 15:34 12.92213 -59.52678 10803 ft 324 kts 229°
2026-04-28 15:34 12.90787 -59.54410 11321 ft 315 kts 230°
2026-04-28 15:34 12.89383 -59.56132 11847 ft 315 kts 230°
2026-04-28 15:34 12.87976 -59.57826 12366 ft 317 kts 227°
2026-04-28 15:35 12.86391 -59.59408 12899 ft 320 kts 221°
2026-04-28 15:35 12.82944 -59.62317 13948 ft 325 kts 218°
2026-04-28 15:35 12.81156 -59.63770 14480 ft 327 kts 218°
2026-04-28 15:36 12.79372 -59.65235 15010 ft 330 kts 219°
2026-04-28 15:36 12.77587 -59.66726 15535 ft 332 kts 219°
2026-04-28 15:36 12.75793 -59.68244 16064 ft 335 kts 220°
2026-04-28 15:36 12.73995 -59.69782 16588 ft 338 kts 220°
2026-04-28 15:37 12.72191 -59.71337 17120 ft 340 kts 220°
2026-04-28 15:37 12.70373 -59.72910 17648 ft 343 kts 220°
2026-04-28 15:37 12.68540 -59.74494 18175 ft 346 kts 220°
2026-04-28 15:37 12.67319 -59.75547 18525 ft 348 kts 220°
2026-04-28 15:38 12.64822 -59.77694 19231 ft 352 kts 220°
2026-04-28 15:38 12.62962 -59.79292 19755 ft 354 kts 220°
2026-04-28 15:38 12.61063 -59.80924 20283 ft 357 kts 220°
2026-04-28 15:38 12.59147 -59.82569 20812 ft 360 kts 220°
2026-04-28 15:39 12.57220 -59.84225 21339 ft 363 kts 220°
2026-04-28 15:39 12.55272 -59.85896 21869 ft 367 kts 220°
2026-04-28 15:39 12.53306 -59.87578 22396 ft 370 kts 220°
2026-04-28 15:39 12.51324 -59.89274 22924 ft 373 kts 220°
2026-04-28 15:40 12.49328 -59.90986 23451 ft 376 kts 220°
2026-04-28 15:40 12.47314 -59.92712 23885 ft 380 kts 220°
2026-04-28 15:40 12.45285 -59.94453 23995 ft 381 kts 220°
2026-04-28 15:40 12.43247 -59.96203 24016 ft 382 kts 220°
2026-04-28 15:41 12.41211 -59.97947 24016 ft 382 kts 220°
2026-04-28 15:41 12.39176 -59.99687 24016 ft 382 kts 220°
2026-04-28 15:41 12.37136 -60.01428 24016 ft 382 kts 220°
2026-04-28 15:41 12.35125 -60.03147 24016 ft 382 kts 220°
2026-04-28 15:42 12.33090 -60.04890 24016 ft 381 kts 220°
2026-04-28 15:42 12.31058 -60.06633 24016 ft 381 kts 220°
2026-04-28 15:42 12.29019 -60.08382 24016 ft 381 kts 220°
2026-04-28 15:42 12.26987 -60.10124 24017 ft 381 kts 220°
2026-04-28 15:43 12.24951 -60.11865 24018 ft 382 kts 220°
2026-04-28 15:43 12.22918 -60.13604 24020 ft 382 kts 220°
2026-04-28 15:43 12.20878 -60.15347 24021 ft 382 kts 220°
2026-04-28 15:43 12.18840 -60.17088 24023 ft 382 kts 220°
2026-04-28 15:44 12.16797 -60.18834 24025 ft 382 kts 220°
2026-04-28 15:44 12.14760 -60.20577 24026 ft 382 kts 220°
2026-04-28 15:44 12.12723 -60.22320 24027 ft 382 kts 220°
2026-04-28 15:44 12.10681 -60.24065 24028 ft 382 kts 220°
2026-04-28 15:45 12.08639 -60.25809 24029 ft 382 kts 220°
2026-04-28 15:45 12.06599 -60.27549 24030 ft 382 kts 220°
2026-04-28 15:45 12.04555 -60.29289 24031 ft 382 kts 220°
2026-04-28 15:45 12.02540 -60.31008 24031 ft 382 kts 220°
2026-04-28 15:46 12.00498 -60.32750 24032 ft 382 kts 220°
2026-04-28 15:46 11.98455 -60.34494 24032 ft 382 kts 220°
2026-04-28 15:46 11.96414 -60.36239 24033 ft 382 kts 220°
2026-04-28 15:46 11.94371 -60.37984 24034 ft 382 kts 220°
2026-04-28 15:47 11.92328 -60.39727 24034 ft 382 kts 220°
2026-04-28 15:47 11.90279 -60.41471 24034 ft 382 kts 220°
2026-04-28 15:47 11.88235 -60.43210 24034 ft 382 kts 220°
2026-04-28 15:47 11.86193 -60.44949 24035 ft 382 kts 220°
2026-04-28 15:48 11.84146 -60.46692 24035 ft 382 kts 220°
2026-04-28 15:48 11.82124 -60.48412 24035 ft 382 kts 220°
2026-04-28 15:48 11.80082 -60.50150 24034 ft 382 kts 220°
2026-04-28 15:48 11.78039 -60.51888 24033 ft 382 kts 220°
2026-04-28 15:49 11.75996 -60.53626 24033 ft 382 kts 220°
2026-04-28 15:49 11.73956 -60.55362 24032 ft 382 kts 220°
2026-04-28 15:49 11.71914 -60.57103 24032 ft 382 kts 220°
2026-04-28 15:49 11.69874 -60.58846 24032 ft 382 kts 220°
2026-04-28 15:50 11.67831 -60.60587 24032 ft 382 kts 220°
2026-04-28 15:50 11.66479 -60.61735 24032 ft 382 kts 220°
2026-04-28 15:50 11.64434 -60.63469 24033 ft 382 kts 220°
2026-04-28 15:50 11.62385 -60.65208 24033 ft 382 kts 220°
2026-04-28 15:51 11.60337 -60.66947 24033 ft 382 kts 220°
2026-04-28 15:51 11.58293 -60.68685 24034 ft 382 kts 220°
2026-04-28 15:51 11.56248 -60.70421 24034 ft 382 kts 220°
2026-04-28 15:51 11.54201 -60.72158 24035 ft 383 kts 220°
2026-04-28 15:52 11.52155 -60.73897 24035 ft 383 kts 220°
2026-04-28 15:52 11.50133 -60.75616 24036 ft 383 kts 220°
2026-04-28 15:52 11.48087 -60.77353 24036 ft 383 kts 220°
2026-04-28 15:52 11.46037 -60.79090 24036 ft 382 kts 220°
2026-04-28 15:53 11.44023 -60.80796 23904 ft 372 kts 220°
2026-04-28 15:53 11.42049 -60.82471 23626 ft 365 kts 220°
2026-04-28 15:53 11.40110 -60.84120 23350 ft 358 kts 220°
2026-04-28 15:53 11.38209 -60.85734 23074 ft 352 kts 220°
2026-04-28 15:54 11.36356 -60.87310 22801 ft 348 kts 220°
2026-04-28 15:54 11.34503 -60.88883 22526 ft 346 kts 220°
2026-04-28 15:54 11.32656 -60.90446 22251 ft 344 kts 220°
2026-04-28 15:54 11.30812 -60.92008 21979 ft 343 kts 220°
2026-04-28 15:55 11.28981 -60.93559 21695 ft 341 kts 220°
2026-04-28 15:55 11.27160 -60.95100 21423 ft 340 kts 220°
2026-04-28 15:55 11.25341 -60.96640 21140 ft 338 kts 220°
2026-04-28 15:55 11.23530 -60.98172 20871 ft 337 kts 220°
2026-04-28 15:56 11.21754 -60.99675 20599 ft 335 kts 220°
2026-04-28 15:56 11.19958 -61.01194 20323 ft 334 kts 220°
2026-04-28 15:56 11.18175 -61.02701 20048 ft 332 kts 219°
2026-04-28 15:56 11.16400 -61.04199 19773 ft 331 kts 220°
2026-04-28 15:57 11.14626 -61.05697 19496 ft 330 kts 220°
2026-04-28 15:57 11.12867 -61.07187 19221 ft 328 kts 220°
2026-04-28 15:57 11.11118 -61.08673 18945 ft 327 kts 220°
2026-04-28 15:57 11.09375 -61.10150 18670 ft 325 kts 220°
2026-04-28 15:58 11.07639 -61.11618 18395 ft 324 kts 220°
2026-04-28 15:58 11.05909 -61.13079 18119 ft 322 kts 220°
2026-04-28 15:58 11.04186 -61.14534 17844 ft 321 kts 220°
2026-04-28 15:58 11.02485 -61.15970 17570 ft 320 kts 220°
2026-04-28 15:59 11.00774 -61.17414 17290 ft 318 kts 220°
2026-04-28 15:59 10.99075 -61.18849 17019 ft 317 kts 220°
2026-04-28 15:59 10.97383 -61.20277 16744 ft 315 kts 220°
2026-04-28 15:59 10.95694 -61.21705 16470 ft 314 kts 220°
2026-04-28 16:00 10.94017 -61.23125 16184 ft 313 kts 220°
2026-04-28 16:00 10.92345 -61.24539 15911 ft 311 kts 220°
2026-04-28 16:00 10.90684 -61.25943 15641 ft 310 kts 220°
2026-04-28 16:00 10.89027 -61.27340 15365 ft 309 kts 219°
2026-04-28 16:01 10.87373 -61.28734 15090 ft 307 kts 219°
2026-04-28 16:01 10.85728 -61.30120 14812 ft 306 kts 219°
2026-04-28 16:01 10.84113 -61.31481 14542 ft 305 kts 219°
2026-04-28 16:01 10.82482 -61.32856 14272 ft 303 kts 220°
2026-04-28 16:02 10.80863 -61.34225 13991 ft 302 kts 220°
2026-04-28 16:02 10.79250 -61.35589 13710 ft 301 kts 220°
2026-04-28 16:02 10.77665 -61.36970 13437 ft 299 kts 226°
2026-04-28 16:02 10.76574 -61.38745 13161 ft 297 kts 252°
2026-04-28 16:03 10.76350 -61.40812 12889 ft 296 kts 277°
2026-04-28 16:03 10.77007 -61.42779 12554 ft 296 kts 298°
2026-04-28 16:03 10.78048 -61.44584 12180 ft 296 kts 301°
2026-04-28 16:03 10.79128 -61.46361 11802 ft 295 kts 301°
2026-04-28 16:04 10.80210 -61.48129 11425 ft 292 kts 301°
2026-04-28 16:04 10.81268 -61.49852 11047 ft 281 kts 301°
2026-04-28 16:04 10.82276 -61.51492 10666 ft 272 kts 301°
2026-04-28 16:04 10.83261 -61.53092 10298 ft 263 kts 301°
2026-04-28 16:05 10.84218 -61.54644 9923 ft 256 kts 301°
2026-04-28 16:05 10.85165 -61.56180 9199 ft 262 kts 301°
2026-04-28 16:05 10.86160 -61.57795 8489 ft 275 kts 301°
2026-04-28 16:05 10.87187 -61.59476 8048 ft 281 kts 298°
2026-04-28 16:06 10.87782 -61.61349 7629 ft 281 kts 273°
2026-04-28 16:06 10.87472 -61.63295 7206 ft 281 kts 246°
2026-04-28 16:06 10.86324 -61.64880 6774 ft 281 kts 219°
2026-04-28 16:06 10.84580 -61.65762 6347 ft 282 kts 192°
2026-04-28 16:07 10.82619 -61.65913 5920 ft 283 kts 180°
2026-04-28 16:07 10.80676 -61.65904 5609 ft 280 kts 179°
2026-04-28 16:07 10.76950 -61.65324 5199 ft 270 kts 152°
2026-04-28 16:08 10.75390 -61.64251 4997 ft 270 kts 144°
2026-04-28 16:08 10.73876 -61.63122 4796 ft 269 kts 144°
2026-04-28 16:08 10.72417 -61.62021 4832 ft 253 kts 144°
2026-04-28 16:09 10.69661 -61.59932 4439 ft 243 kts 144°
2026-04-28 16:09 10.68302 -61.58902 4214 ft 244 kts 144°
2026-04-28 16:09 10.66966 -61.57892 3972 ft 240 kts 144°
2026-04-28 16:10 10.64418 -61.55976 4044 ft 216 kts 144°
2026-04-28 16:10 10.63217 -61.55074 4063 ft 214 kts 144°
2026-04-28 16:10 10.60834 -61.53263 3948 ft 213 kts 139°
2026-04-28 16:11 10.59515 -61.50784 3631 ft 191 kts 98°
2026-04-28 16:11 10.59485 -61.48203 3224 ft 176 kts 91°
2026-04-28 16:12 10.59497 -61.45906 2868 ft 156 kts 85°
2026-04-28 16:12 10.59554 -61.44801 2587 ft 156 kts 92°
2026-04-28 16:13 10.59549 -61.42586 1955 ft 155 kts 92°
2026-04-28 16:13 10.59538 -61.41501 1732 ft 155 kts 90°
2026-04-28 16:13 10.59529 -61.39341 1297 ft 148 kts 91°
2026-04-28 16:14 10.59537 -61.37311 686 ft 141 kts 91°
2026-04-28 16:14 10.59538 -61.35362 122 ft 140 kts 90°
2026-04-28 16:15 10.59539 -61.33678 17 ft 59 kts 89°
2026-04-28 16:15 10.59538 -61.33328 17 ft 47 kts 90°
2026-04-28 16:15 10.59536 -61.33012 17 ft 32 kts 90°
2026-04-28 16:16 10.59660 -61.32949 18 ft 14 kts
2026-04-28 16:16 10.59719 -61.33002 17 ft 12 kts 255°
2026-04-28 16:17 10.59713 -61.33214 17 ft 19 kts 272°
2026-04-28 16:17 10.59708 -61.33358 17 ft 22 kts 269°
2026-04-28 16:17 10.59707 -61.33524 17 ft 25 kts 269°
2026-04-28 16:17 10.59709 -61.33690 17 ft 7 kts 271°
2026-04-28 16:18 10.59724 -61.33748 19 ft 10 kts 296°
2026-04-28 16:18 10.59772 -61.33762 17 ft 7 kts 335°
2026-04-28 16:18 10.59824 -61.33751 17 ft 7 kts 347°
2026-04-28 16:18 10.59841 -61.33807 17 ft 10 kts 276°
2026-04-28 16:19 10.59849 -61.33890 17 ft 14 kts 275°
2026-04-28 16:19 10.59838 -61.33996 17 ft 17 kts 264°
2026-04-28 16:19 10.59837 -61.34122 17 ft 17 kts 270°
2026-04-28 16:19 10.59915 -61.34193 17 ft 16 kts
2026-04-28 16:20 10.60030 -61.34175 17 ft 19 kts
2026-04-28 16:20 10.60126 -61.34121 17 ft 16 kts 97°
2026-04-28 16:20 10.60120 -61.34041 19 ft 10 kts 141°
2026-04-28 16:20 10.60080 -61.34021 17 ft 0 kts 151°